Weather History for Fredericksburg, TX

Change the Weather History Date:

Friday, April 18, 2014

  Actual Average (KSAT) Record (KSAT)
Temperature  
Mean Temperature 65 °F 70 °F  
Max Temperature 76 °F 81 °F 100 °F (2006)
Min Temperature 55 °F 59 °F 42 °F (1947)
Degree Days  
Heating Degree Days 0 1  
Month to date heating degree days 33  
Since 1 July heating degree days 1488  
Cooling Degree Days 0 6  
Month to date cooling degree days 84  
Year to date cooling degree days 175  
Growing Degree Days 15 (Base 50)    
Moisture  
Dew Point 53 °F    
Average Humidity 69    
Maximum Humidity 96    
Minimum Humidity 37    
Precipitation  
Precipitation 0.00 in 0.07 in 6.78 in (1915)
Month to date precipitation 1.11  
Year to date precipitation 6.97  
Snow  
Snow 0.00 in - - ()
Month to date snowfall  
Since 1 July snowfall  
Snow Depth -    
Sea Level Pressure  
Sea Level Pressure 30.17 in    
Wind  
Wind Speed 2 mph (ESE)    
Max Wind Speed 8 mph    
Max Gust Speed -    
Visibility 9 miles    
Events      
T = Trace of Precipitation, MM = Missing Value Source: NWS Daily Summary

Daily Weather History Graph

Daily Weather History Graph

Search for Another Location

Airport:

Trip Planner

Search our weather history database for the weather conditions in past years. The results will help you decide how hot, cold, wet, or windy it might be!

Date:

Astronomy

Apr. 18, 2014 Rise Set
Actual Time 7:05 AM CDT 8:05 PM CDT
Civil Twilight 6:40 AM CDT 8:29 PM CDT
Nautical Twilight 6:11 AM CDT 8:59 PM CDT
Astronomical Twilight 5:41 AM CDT 9:29 PM CDT
Moon 11:42 PM CDT (4/18) 9:37 AM CDT (4/18)
Length of Visible Light 13h 49m
Length of Day
12h 59m
Waning Gibbous, 87% of the Moon is Illuminated
Apr 18
Waning Gibbous
Apr 22
Last Quarter
Apr 29
New
May 6
First Quarter
May 14
Full

Hourly Weather History & Observations

Time (CDT) Temp. Dew Point Humidity Pressure Visibility Wind Dir Wind Speed Gust Speed Precip Events Conditions
12:15 AM 59.5 °F 57.0 °F 91% 30.18 in 10.0 mi Calm Calm - N/A   Overcast
12:35 AM 59.5 °F 57.2 °F 92% 30.18 in 10.0 mi Calm Calm - N/A   Overcast
12:55 AM 59.4 °F 57.2 °F 93% 30.19 in 10.0 mi SE 3.5 mph - N/A   Overcast
1:15 AM 59.2 °F 57.0 °F 93% 30.19 in 10.0 mi ESE 3.5 mph - N/A   Overcast
1:35 AM 59.0 °F 57.0 °F 93% 30.19 in 7.0 mi SE 3.5 mph - N/A   Overcast
1:55 AM 59.0 °F 56.8 °F 93% 30.18 in 7.0 mi Calm Calm - N/A   Overcast
2:15 AM 59.0 °F 56.7 °F 92% 30.18 in 7.0 mi Calm Calm - N/A   Overcast
2:35 AM 59.0 °F 56.5 °F 91% 30.18 in 10.0 mi Calm Calm - N/A   Overcast
2:55 AM 58.8 °F 56.5 °F 92% 30.18 in 7.0 mi Calm Calm - N/A   Overcast
3:15 AM 58.3 °F 56.7 °F 94% 30.18 in 5.0 mi Calm Calm - N/A   Overcast
3:35 AM 58.1 °F 56.7 °F 95% 30.17 in 3.0 mi Calm Calm - N/A   Overcast
3:55 AM 58.1 °F 56.8 °F 96% 30.17 in 5.0 mi Calm Calm - N/A   Overcast
4:15 AM 58.1 °F 56.8 °F 96% 30.17 in 5.0 mi Calm Calm - N/A   Overcast
4:35 AM 58.1 °F 56.8 °F 96% 30.17 in 4.0 mi Calm Calm - N/A   Overcast
4:55 AM 58.1 °F 56.7 °F 95% 30.16 in 5.0 mi Calm Calm - N/A   Overcast
5:15 AM 58.1 °F 56.7 °F 95% 30.17 in 5.0 mi Calm Calm - N/A   Overcast
5:35 AM 58.1 °F 56.3 °F 94% 30.17 in 7.0 mi Calm Calm - N/A   Overcast
5:55 AM 58.1 °F 55.9 °F 93% 30.17 in 10.0 mi Calm Calm - N/A   Overcast
6:15 AM 58.1 °F 56.3 °F 94% 30.17 in 7.0 mi Calm Calm - N/A   Overcast
6:35 AM 58.1 °F 56.3 °F 94% 30.18 in 7.0 mi Calm Calm - N/A   Overcast
6:55 AM 57.7 °F 55.9 °F 94% 30.18 in 7.0 mi Calm Calm - N/A   Mostly Cloudy
7:15 AM 55.6 °F 53.8 °F 94% 30.19 in 4.0 mi Calm Calm - N/A   Mostly Cloudy
7:35 AM 55.4 °F 54.1 °F 96% 30.20 in 4.0 mi Calm Calm - N/A   Mostly Cloudy
7:55 AM 56.8 °F 55.6 °F 96% 30.21 in 5.0 mi Calm Calm - N/A   Mostly Cloudy
8:15 AM 57.7 °F 56.1 °F 94% 30.21 in 7.0 mi Calm Calm - N/A   Mostly Cloudy
8:35 AM 59.7 °F 56.5 °F 89% 30.21 in 10.0 mi East 3.5 mph - N/A   Mostly Cloudy
8:55 AM 60.8 °F 56.1 °F 85% 30.21 in 10.0 mi NE 3.5 mph - N/A   Scattered Clouds
9:15 AM 61.9 °F 55.9 °F 81% 30.21 in 10.0 mi East 5.8 mph - N/A   Mostly Cloudy
9:35 AM 61.9 °F 55.2 °F 79% 30.22 in 10.0 mi East 3.5 mph - N/A   Mostly Cloudy
9:55 AM 63.3 °F 55.6 °F 76% 30.21 in 10.0 mi ESE 3.5 mph - N/A   Mostly Cloudy
10:15 AM 63.3 °F 55.2 °F 75% 30.22 in 10.0 mi Calm Calm - N/A   Overcast
10:35 AM 64.4 °F 54.9 °F 71% 30.22 in 10.0 mi ESE 5.8 mph - N/A   Mostly Cloudy
10:55 AM 66.0 °F 54.5 °F 66% 30.22 in 10.0 mi East 4.6 mph - N/A   Scattered Clouds
11:15 AM 67.3 °F 54.7 °F 64% 30.22 in 10.0 mi East 4.6 mph - N/A   Scattered Clouds
11:35 AM 68.4 °F 52.7 °F 57% 30.22 in 10.0 mi East 3.5 mph - N/A   Scattered Clouds
11:55 AM 66.7 °F 52.2 °F 59% 30.22 in 10.0 mi Calm Calm - N/A   Scattered Clouds
12:15 PM 69.6 °F 51.3 °F 52% 30.21 in 10.0 mi Calm Calm - N/A   Scattered Clouds
12:35 PM 70.3 °F 51.1 °F 50% 30.20 in 10.0 mi Calm Calm - N/A   Scattered Clouds
12:55 PM 69.6 °F 51.1 °F 52% 30.20 in 10.0 mi East 5.8 mph - N/A   Scattered Clouds
1:15 PM 71.4 °F 50.7 °F 48% 30.19 in 10.0 mi Calm Calm - N/A   Scattered Clouds
1:35 PM 70.9 °F 49.3 °F 46% 30.18 in 10.0 mi SSW 4.6 mph - N/A   Mostly Cloudy
1:55 PM 71.8 °F 48.6 °F 44% 30.18 in 10.0 mi Calm Calm - N/A   Mostly Cloudy
2:15 PM 72.0 °F 49.5 °F 45% 30.18 in 10.0 mi ENE 6.9 mph - N/A   Scattered Clouds
2:35 PM 73.9 °F 49.8 °F 43% 30.17 in 10.0 mi NE 8.1 mph - N/A   Scattered Clouds
2:55 PM 72.7 °F 49.3 °F 44% 30.16 in 10.0 mi ESE 6.9 mph - N/A   Scattered Clouds
3:15 PM 73.8 °F 50.9 °F 45% 30.15 in 10.0 mi East 6.9 mph - N/A   Mostly Cloudy
3:35 PM 75.2 °F 49.6 °F 41% 30.14 in 10.0 mi East 4.6 mph - N/A   Scattered Clouds
3:55 PM 73.9 °F 48.2 °F 40% 30.13 in 10.0 mi ESE 4.6 mph - N/A   Scattered Clouds
4:15 PM 73.4 °F 47.7 °F 40% 30.13 in 10.0 mi ENE 5.8 mph - N/A   Mostly Cloudy
4:35 PM 74.7 °F 47.3 °F 38% 30.12 in 10.0 mi NE 3.5 mph - N/A   Overcast
4:55 PM 75.2 °F 46.9 °F 37% 30.11 in 10.0 mi ESE 4.6 mph - N/A   Scattered Clouds
5:15 PM 74.8 °F 47.1 °F 37% 30.11 in 10.0 mi ESE 3.5 mph - N/A   Scattered Clouds
5:35 PM 74.7 °F 47.7 °F 38% 30.11 in 10.0 mi SE 5.8 mph - N/A   Scattered Clouds
5:55 PM 74.8 °F 48.0 °F 39% 30.11 in 10.0 mi ESE 4.6 mph - N/A   Scattered Clouds
6:15 PM 75.2 °F 48.4 °F 39% 30.11 in 10.0 mi ESE 4.6 mph - N/A   Scattered Clouds
6:35 PM 75.2 °F 48.0 °F 38% 30.10 in 10.0 mi East 3.5 mph - N/A   Clear
6:55 PM 73.8 °F 47.5 °F 39% 30.10 in 10.0 mi Calm Calm - N/A   Clear
7:15 PM 72.7 °F 48.2 °F 42% 30.10 in 10.0 mi East 6.9 mph - N/A   Clear
7:35 PM 71.2 °F 50.5 °F 48% 30.09 in 10.0 mi East 4.6 mph - N/A   Clear
7:55 PM 70.5 °F 51.4 °F 51% 30.10 in 10.0 mi East 5.8 mph - N/A   Clear
8:15 PM 69.3 °F 51.8 °F 54% 30.10 in 10.0 mi ESE 3.5 mph - N/A   Clear
8:35 PM 68.0 °F 52.0 °F 56% 30.11 in 10.0 mi Calm Calm - N/A   Clear
8:55 PM 67.1 °F 52.3 °F 59% 30.12 in 10.0 mi SE 4.6 mph - N/A   Clear
9:15 PM 66.2 °F 52.7 °F 62% 30.13 in 10.0 mi SSE 3.5 mph - N/A   Clear
9:35 PM 64.8 °F 52.5 °F 64% 30.14 in 10.0 mi Calm Calm - N/A   Clear
9:55 PM 64.2 °F 52.7 °F 66% 30.15 in 10.0 mi SE 3.5 mph - N/A   Clear
10:15 PM 63.5 °F 52.7 °F 68% 30.16 in 10.0 mi Calm Calm - N/A   Clear
10:35 PM 62.1 °F 52.2 °F 70% 30.15 in 10.0 mi Calm Calm - N/A   Clear
10:55 PM 62.2 °F 52.2 °F 70% 30.16 in 10.0 mi Calm Calm - N/A   Clear
11:15 PM 61.9 °F 52.2 °F 70% 30.16 in 10.0 mi Calm Calm - N/A   Mostly Cloudy
11:35 PM 62.2 °F 52.2 °F 70% 30.16 in 10.0 mi Calm Calm - N/A   Overcast
11:55 PM 61.7 °F 52.0 °F 70% 30.16 in 10.0 mi Calm Calm - N/A   Mostly Cloudy